Date_and_time,latitude,longitude,wind_speed,RelWindDirFrom,WindDirFrom,air_pressure,air_temperature,relative_humidity,Temp,platform_speed_wrt_ground,air_pressure_at_mean_sea_level,platform_orientation
2018-08-19 23:40,50.63045,-96.980775,14.4,16.5,17,991.15,20.2,60,20.60,0.0,1017.17,0.0
2018-08-19 23:50,50.6304316666667,-96.9807683333333,14.4,16.9,19,991.19,20.0,60,20.59,0.0,1017.22,0.0
2018-08-20 00:00,50.6304333333333,-96.9807666666667,16.0,19.4,15,991.11,20.1,61,20.59,0.0,1017.13,142.0
2018-08-20 00:10,50.6304333333333,-96.98077,14.7,17.4,10,991.20,20.1,61,20.60,0.0,1017.21,142.0
2018-08-20 00:20,50.6304333333333,-96.9807683333333,13.3,16.1,6,991.32,20.1,61,20.60,0.0,1017.35,142.0
2018-08-20 00:30,50.6304333333333,-96.98077,12.2,15.9,5,991.34,20.1,62,20.60,0.0,1017.36,142.0
2018-08-20 00:40,50.6304333333333,-96.9807716666667,10.2,14.1,357,991.45,20.0,61,20.59,0.0,1017.47,142.0
2018-08-20 00:50,50.630435,-96.98077,8.3,11.5,345,991.62,20.0,56,20.61,0.0,1017.66,142.0
2018-08-20 01:00,50.63047,-96.9807933333333,6.6,9.7,338,991.76,19.8,56,20.59,0.0,1017.80,336.3
2018-08-20 01:10,50.6304333333333,-96.9807683333333,6.1,9.5,336,991.89,19.6,56,20.60,0.0,1017.95,336.3
2018-08-20 01:20,50.6304383333333,-96.980765,6.2,9.2,331,992.02,19.3,56,20.62,0.0,1018.10,336.3
2018-08-20 01:30,50.6304533333333,-96.9807716666667,4.6,7.0,329,992.21,19.0,57,20.62,0.0,1018.30,336.3
2018-08-20 01:40,50.63045,-96.9807733333333,5.2,8.1,324,992.32,18.8,57,20.63,0.0,1018.43,336.3
2018-08-20 01:50,50.6304483333333,-96.9807666666667,4.6,7.3,323,992.42,18.4,59,20.61,0.0,1018.55,336.3
2018-08-20 02:00,50.6304466666667,-96.980765,5.5,9.3,331,992.52,18.2,59,20.60,0.0,1018.66,360.0
2018-08-20 02:10,50.6304433333333,-96.9807666666667,6.1,8.8,336,992.63,18.1,59,20.60,0.0,1018.77,360.0
2018-08-20 02:20,50.630445,-96.9807666666667,6.5,9.7,337,992.69,18.0,60,20.60,0.0,1018.85,360.0
2018-08-20 02:30,50.6304433333333,-96.9807666666667,6.6,9.7,335,992.73,17.8,61,20.59,0.0,1018.90,360.0
2018-08-20 02:40,50.630435,-96.9807633333333,6.0,7.8,339,992.78,17.7,62,20.58,0.0,1018.95,360.0
2018-08-20 02:50,50.630435,-96.9807633333333,6.7,9.7,344,992.86,17.7,63,20.57,0.0,1019.04,360.0
2018-08-20 03:00,50.6304366666667,-96.9807633333333,6.1,8.9,334,992.92,17.7,64,20.57,0.0,1019.11,38.0
2018-08-20 03:10,50.6304116666667,-96.980775,5.3,7.4,316,993.04,17.0,63,20.57,0.0,1019.28,38.0
2018-08-20 03:20,50.6304516666667,-96.9807666666667,5.7,8.8,306,993.07,16.7,63,20.57,0.0,1019.34,38.0
2018-08-20 03:30,50.6304266666667,-96.980775,5.1,7.3,303,993.16,16.5,64,20.57,0.0,1019.45,38.0
2018-08-20 03:40,50.630425,-96.9807766666667,4.9,6.8,310,993.25,16.3,64,20.56,0.0,1019.57,38.0
2018-08-20 03:50,50.6304266666667,-96.9807716666667,4.2,7.1,320,993.41,16.1,65,20.56,0.0,1019.75,38.0
2018-08-20 04:00,50.6304283333333,-96.9807716666667,5.3,8.5,316,993.47,16.1,65,20.55,0.0,1019.82,360.0
2018-08-20 04:10,50.63043,-96.98077,6.6,9.8,319,993.44,16.1,64,20.54,0.0,1019.79,360.0
2018-08-20 04:20,50.6304316666667,-96.98077,6.6,9.6,320,993.52,16.2,64,20.53,0.0,1019.89,360.0
2018-08-20 04:30,50.6304316666667,-96.98077,6.2,9.3,322,993.61,16.0,64,20.52,0.0,1019.99,360.0
2018-08-20 04:40,50.6304316666667,-96.98077,5.3,7.3,324,993.69,15.8,66,20.51,0.0,1020.08,360.0
2018-08-20 04:50,50.6304,-96.9807633333333,4.9,7.2,329,993.75,15.6,67,20.51,0.0,1020.15,360.0
2018-08-20 05:00,50.6304166666667,-96.9807733333333,4.5,6.5,328,993.80,15.4,69,20.51,0.0,1020.24,360.0
2018-08-20 05:10,50.6304216666667,-96.980765,5.0,7.2,321,993.81,15.1,70,20.51,0.0,1020.28,360.0
2018-08-20 05:20,50.6304216666667,-96.9807683333333,5.2,7.1,327,993.78,14.9,71,20.50,0.0,1020.27,360.0
2018-08-20 05:30,50.6304216666667,-96.9807683333333,4.9,6.4,327,993.76,14.6,72,20.50,0.0,1020.27,360.0
2018-08-20 05:40,50.6304216666667,-96.98077,5.7,9.3,325,993.78,14.4,74,20.48,0.0,1020.31,360.0
2018-08-20 05:50,50.6304233333333,-96.9807716666667,7.1,10.1,318,993.79,14.3,75,20.48,0.0,1020.33,360.0
2018-08-20 06:00,50.630425,-96.9807733333333,7.8,10.8,315,993.78,14.2,75,20.47,0.0,1020.32,221.3
2018-08-20 06:10,50.63043,-96.9807783333333,7.6,10.5,314,993.78,14.2,74,20.47,0.0,1020.32,221.3
2018-08-20 06:20,50.6304266666667,-96.9807883333333,7.3,10.1,317,993.77,14.1,75,20.46,0.0,1020.32,221.3
2018-08-20 06:30,50.6304316666667,-96.9807833333333,7.0,10.0,315,993.78,13.9,76,20.44,0.0,1020.35,221.3
2018-08-20 06:40,50.630425,-96.980775,6.6,8.7,309,993.77,13.7,77,20.44,0.0,1020.36,221.3
2018-08-20 06:50,50.6304316666667,-96.9807716666667,7.1,9.6,306,993.77,13.3,78,20.44,0.0,1020.38,221.3
2018-08-20 07:00,50.630435,-96.980775,6.9,9.4,305,993.82,13.2,79,20.43,0.0,1020.46,360.0
2018-08-20 07:10,50.63044,-96.980765,7.3,9.7,299,993.85,13.0,80,20.43,0.0,1020.51,360.0
2018-08-20 07:20,50.6304466666667,-96.9808133333333,7.1,10.0,298,993.87,12.9,82,20.41,0.0,1020.54,360.0
2018-08-20 07:30,50.6304433333333,-96.9807716666667,7.2,10.3,296,993.84,12.9,82,20.40,0.0,1020.52,360.0
2018-08-20 07:40,50.6304383333333,-96.98077,6.9,9.6,295,993.85,12.8,83,20.39,0.0,1020.54,360.0
2018-08-20 07:50,50.6304383333333,-96.9807716666667,6.8,9.7,297,993.84,12.7,84,20.39,0.0,1020.54,360.0
2018-08-20 08:00,50.630435,-96.98077,6.7,11.1,299,993.87,12.7,85,20.37,0.0,1020.58,360.0
2018-08-20 08:10,50.6304333333333,-96.9807683333333,6.8,9.2,304,993.89,12.8,85,20.36,0.0,1020.59,360.0
2018-08-20 08:20,50.630435,-96.98078,8.0,10.6,305,993.92,12.8,86,20.35,0.0,1020.63,360.0
2018-08-20 08:30,50.630435,-96.9807516666667,8.3,11.0,305,993.99,12.8,86,20.35,0.0,1020.72,360.0
2018-08-20 08:40,50.6304366666667,-96.98075,7.7,10.2,304,994.05,12.8,86,20.33,0.0,1020.79,360.0
2018-08-20 08:50,50.63043,-96.9807666666667,7.8,11.5,306,994.08,12.8,86,20.32,0.0,1020.83,360.0
2018-08-20 09:00,50.630425,-96.9807666666667,8.0,10.3,309,994.08,12.8,86,20.30,0.0,1020.84,90.0
2018-08-20 09:10,50.630425,-96.98077,7.5,10.3,312,994.14,12.8,87,20.29,0.0,1020.90,90.0
2018-08-20 09:20,50.63043,-96.9807716666667,7.0,10.9,313,994.26,12.8,87,20.27,0.0,1021.03,90.0
2018-08-20 09:30,50.6304266666667,-96.9808083333333,7.4,11.0,315,994.32,12.7,88,20.26,0.0,1021.11,90.0
2018-08-20 09:40,50.63043,-96.9807816666667,7.2,10.3,319,994.42,12.6,88,20.25,0.0,1021.21,90.0
2018-08-20 09:50,50.6304466666667,-96.98077,7.9,10.4,315,994.47,12.5,88,20.25,0.0,1021.27,90.0
2018-08-20 10:00,50.6304433333333,-96.9807716666667,7.2,10.2,310,994.59,12.3,89,20.25,0.0,1021.40,38.0
2018-08-20 10:10,50.63044,-96.980775,7.4,11.2,313,994.58,12.2,90,20.22,0.0,1021.39,38.0
2018-08-20 10:20,50.6304383333333,-96.9807766666667,7.6,10.3,319,994.58,12.3,89,20.20,0.0,1021.39,38.0
2018-08-20 10:30,50.6304383333333,-96.980775,7.1,11.0,312,994.65,12.3,89,20.18,0.0,1021.46,38.0
2018-08-20 10:40,50.6304383333333,-96.980775,7.3,10.1,311,994.68,12.2,89,20.18,0.0,1021.49,38.0
2018-08-20 10:50,50.6304333333333,-96.9807683333333,7.6,10.3,312,994.68,12.3,89,20.16,0.0,1021.49,38.0
2018-08-20 11:00,50.6304333333333,-96.9807666666667,8.0,11.7,313,994.72,12.3,89,20.16,0.0,1021.53,142.0
2018-08-20 11:10,50.6304316666667,-96.9807666666667,7.8,11.1,313,994.85,12.4,88,20.13,0.0,1021.66,142.0
2018-08-20 11:20,50.6304316666667,-96.9807616666667,6.9,12.8,321,994.94,12.4,90,20.11,0.0,1021.76,142.0
2018-08-20 11:30,50.6304316666667,-96.9807633333333,7.4,11.6,325,995.02,12.5,91,20.10,0.0,1021.83,142.0
2018-08-20 11:40,50.63043,-96.9807633333333,6.9,10.3,326,995.11,12.5,91,20.10,0.0,1021.93,142.0
2018-08-20 11:50,50.63043,-96.9807666666667,7.1,9.1,319,995.25,12.1,92,20.08,0.0,1022.11,142.0
2018-08-20 12:00,50.6304316666667,-96.9807916666667,6.1,8.2,321,995.39,11.9,93,20.07,0.0,1022.26,286.8
2018-08-20 12:10,50.63043,-96.9807816666667,6.1,9.1,322,995.46,12.0,92,20.07,0.0,1022.34,286.8
2018-08-20 12:20,50.6304283333333,-96.9807816666667,6.0,8.4,320,995.61,12.1,91,20.06,0.0,1022.48,286.8
2018-08-20 12:30,50.6303983333333,-96.98076,5.7,8.1,321,995.68,12.2,90,20.05,0.0,1022.54,286.8
2018-08-20 12:40,50.6304166666667,-96.9807816666667,5.4,7.8,327,995.74,12.4,89,20.03,0.0,1022.60,286.8
2018-08-20 12:50,50.63043,-96.98075,5.6,8.3,322,995.76,12.6,88,20.00,0.0,1022.60,286.8
2018-08-20 13:00,50.6304316666667,-96.980755,5.4,8.5,326,995.76,12.9,87,19.99,0.0,1022.59,131.7
2018-08-20 13:10,50.6304333333333,-96.9807566666667,5.9,8.6,318,995.77,13.2,85,19.97,0.0,1022.58,131.7
2018-08-20 13:20,50.63042,-96.9807566666667,6.5,8.9,315,995.83,13.6,83,19.96,0.0,1022.62,131.7
2018-08-20 13:30,50.63041,-96.980745,6.5,9.1,315,995.90,14.0,81,19.96,0.0,1022.67,131.7
2018-08-20 13:40,50.630435,-96.9807516666667,6.9,10.4,318,995.92,14.4,80,19.95,0.0,1022.70,131.7
2018-08-20 13:50,50.6304333333333,-96.980755,7.8,11.1,317,995.88,14.6,78,19.95,0.0,1022.66,131.7
2018-08-20 14:00,50.6304333333333,-96.980755,6.4,9.4,317,995.94,14.8,78,19.95,0.0,1022.70,90.0
2018-08-20 14:10,50.630435,-96.980755,6.5,10.1,320,995.97,15.3,75,19.95,0.0,1022.71,90.0
2018-08-20 14:20,50.630435,-96.980755,6.5,8.7,327,995.98,15.6,74,19.94,0.0,1022.69,90.0
2018-08-20 14:30,50.630435,-96.9807566666667,6.4,9.6,331,995.94,16.0,72,19.94,0.0,1022.63,90.0
2018-08-20 14:40,50.6304416666667,-96.98078,6.4,9.0,340,995.96,16.5,70,19.93,0.0,1022.62,90.0
2018-08-20 14:50,50.6304383333333,-96.980775,7.3,10.5,350,995.94,16.9,68,19.92,0.0,1022.56,90.0
2018-08-20 15:00,50.6304366666667,-96.980775,9.0,13.3,356,995.94,17.1,67,19.88,0.0,1022.54,68.5
2018-08-20 15:10,50.630435,-96.9807716666667,9.1,12.7,354,995.98,17.2,66,19.86,0.0,1022.55,68.5
2018-08-20 15:20,50.630435,-96.98077,10.2,13.4,5,996.02,17.2,66,19.89,0.0,1022.58,68.5
2018-08-20 15:30,50.63043,-96.9807733333333,10.0,12.6,12,995.98,17.2,67,19.89,0.0,1022.51,68.5
2018-08-20 15:40,50.630435,-96.9807716666667,10.3,12.7,12,995.94,17.3,67,19.89,0.0,1022.46,68.5
2018-08-20 15:50,50.6304366666667,-96.9807733333333,11.1,12.7,14,995.92,17.3,67,19.90,0.0,1022.44,68.5
2018-08-20 16:00,50.6304366666667,-96.9807633333333,10.7,12.4,19,995.97,17.4,67,19.91,0.0,1022.45,311.7
2018-08-20 16:10,50.6304366666667,-96.980765,10.3,11.5,25,995.98,17.6,67,19.92,0.0,1022.44,311.7
2018-08-20 16:20,50.6304383333333,-96.9807666666667,10.8,12.7,30,995.90,17.7,67,19.96,0.0,1022.33,311.7
2018-08-20 16:30,50.630435,-96.980775,10.9,13.1,30,995.87,17.8,66,20.00,0.0,1022.28,311.7
2018-08-20 16:40,50.6304316666667,-96.9807916666667,10.5,12.0,36,995.89,17.8,66,20.03,0.0,1022.28,311.7
2018-08-20 16:50,50.6304333333333,-96.980775,10.6,12.6,36,995.84,18.0,65,20.05,0.0,1022.22,311.7
2018-08-20 17:00,50.6304316666667,-96.9807666666667,10.2,12.5,41,995.78,18.1,65,20.09,0.0,1022.15,270.0
2018-08-20 17:10,50.6304316666667,-96.9807633333333,9.8,11.2,38,995.75,18.1,64,20.12,0.0,1022.11,270.0
2018-08-20 17:20,50.63043,-96.9807616666667,10.6,12.7,39,995.66,18.2,64,20.15,0.0,1022.01,270.0
2018-08-20 17:30,50.6304316666667,-96.9807633333333,9.4,12.6,44,995.64,18.2,63,20.15,0.0,1021.99,270.0
2018-08-20 17:40,50.6304433333333,-96.9807866666667,9.1,11.2,47,995.71,18.4,63,20.13,0.0,1022.05,270.0
2018-08-20 17:50,50.630445,-96.9807933333333,8.9,11.6,47,995.70,18.5,61,20.12,0.0,1022.03,270.0
2018-08-20 18:00,50.6304433333333,-96.9807883333333,9.0,10.8,51,995.66,18.6,58,20.11,0.0,1021.98,291.5
2018-08-20 18:10,50.630445,-96.980785,9.9,11.2,47,995.58,18.7,54,20.07,0.0,1021.88,291.5
2018-08-20 18:20,50.630445,-96.9807833333333,10.5,12.2,46,995.40,18.8,52,20.05,0.0,1021.69,291.5
2018-08-20 18:30,50.630445,-96.9807833333333,10.2,12.2,48,995.30,19.0,52,20.03,0.0,1021.58,291.5
2018-08-20 18:40,50.630445,-96.9807816666667,10.6,12.4,45,995.14,19.2,48,20.02,0.0,1021.41,291.5
2018-08-20 18:50,50.630445,-96.9807816666667,9.7,12.2,48,995.06,19.2,50,20.02,0.0,1021.31,291.5
2018-08-20 19:00,50.6304283333333,-96.9807616666667,10.1,11.7,49,994.97,19.2,50,20.02,0.0,1021.22,165.5
2018-08-20 19:10,50.6304383333333,-96.980745,10.5,12.1,49,994.97,19.3,53,20.02,0.0,1021.21,165.5
2018-08-20 19:20,50.6304533333333,-96.980785,9.5,11.7,53,995.02,19.4,53,20.02,0.0,1021.26,165.5
2018-08-20 19:30,50.6304433333333,-96.9807833333333,10.1,12.2,52,994.97,19.5,52,20.02,0.0,1021.20,165.5
2018-08-20 19:40,50.63044,-96.980775,10.9,13.3,53,994.84,19.4,53,20.02,0.0,1021.06,165.5
2018-08-20 19:50,50.6304383333333,-96.9807716666667,10.5,12.2,58,994.79,19.4,54,20.02,0.0,1021.00,165.5
2018-08-20 20:00,50.6304183333333,-96.9807466666667,9.8,11.3,64,994.81,19.5,55,20.06,0.0,1021.01,148.9
2018-08-20 20:10,50.6304333333333,-96.9807766666667,8.8,10.5,66,994.78,19.6,55,20.07,0.0,1020.98,148.9
2018-08-20 20:20,50.6304216666667,-96.9807616666667,8.6,10.5,68,994.69,19.5,54,20.05,0.0,1020.88,148.9
2018-08-20 20:30,50.6304316666667,-96.98077,8.4,10.0,69,994.63,19.9,55,20.02,0.0,1020.79,148.9
2018-08-20 20:40,50.6304333333333,-96.9807683333333,8.3,9.6,69,994.55,19.9,54,20.02,0.0,1020.70,148.9
2018-08-20 20:50,50.6304366666667,-96.9807666666667,8.5,10.5,72,994.47,20.1,53,20.02,0.0,1020.62,148.9
2018-08-20 21:00,50.6304366666667,-96.9807666666667,7.3,9.4,80,994.45,20.3,53,20.06,0.0,1020.58,106.8
2018-08-20 21:10,50.6304366666667,-96.9807683333333,5.9,7.5,90,994.39,20.9,53,20.11,0.0,1020.49,106.8
2018-08-20 21:20,50.6304383333333,-96.98077,5.9,8.3,95,994.29,21.2,51,20.15,0.0,1020.37,106.8
2018-08-20 21:30,50.6304383333333,-96.9807716666667,5.5,7.4,95,994.22,21.4,50,20.18,0.0,1020.29,106.8
2018-08-20 21:40,50.6304383333333,-96.9807716666667,5.9,7.7,90,994.08,21.3,50,20.21,0.0,1020.15,106.8
2018-08-20 21:50,50.6304383333333,-96.9807733333333,5.6,7.5,88,994.03,21.1,52,20.22,0.0,1020.10,106.8
2018-08-20 22:00,50.6304383333333,-96.9807733333333,5.4,6.9,92,994.05,20.6,53,20.25,0.0,1020.15,356.8
2018-08-20 22:10,50.63042,-96.9807883333333,4.5,6.2,94,994.03,20.8,52,20.28,0.0,1020.12,356.8
2018-08-20 22:20,50.6304533333333,-96.9807666666667,4.2,6.0,90,993.93,20.8,52,20.29,0.0,1020.00,356.8
2018-08-20 22:30,50.63045,-96.9807683333333,3.3,4.8,91,993.90,20.6,52,20.26,0.0,1019.98,356.8
2018-08-20 22:40,50.630445,-96.980765,3.6,5.3,122,993.92,20.7,51,20.26,0.0,1019.99,356.8
2018-08-20 22:50,50.6304416666667,-96.9807633333333,4.6,5.7,123,993.84,20.4,52,20.39,0.0,1019.91,356.8
2018-08-20 23:00,50.63044,-96.9807633333333,4.1,5.7,131,993.72,20.1,52,20.45,0.0,1019.77,351.6
2018-08-20 23:10,50.6304383333333,-96.9807683333333,3.6,4.7,127,993.65,20.3,52,20.44,0.0,1019.68,351.6
2018-08-20 23:20,50.6304366666667,-96.9807633333333,4.1,5.4,144,993.58,19.9,51,20.46,0.0,1019.61,351.6
2018-08-20 23:30,50.63043,-96.980765,4.6,5.5,140,993.49,20.1,50,20.48,0.0,1019.51,351.6
2018-08-20 23:40,50.6304283333333,-96.9807716666667,4.2,5.4,112,993.52,20.7,50,20.60,0.0,1019.52,351.6
2018-08-20 23:50,50.6304266666667,-96.9807616666667,4.1,5.5,132,993.52,20.4,50,20.71,0.0,1019.57,351.6
